Regional Weather Roundup
Issued by NWS Cleveland, OH

Current Version | Previous Version | Text Only | Print | Product List | Glossary On
Versions: 1 2 3 4 5 6 7 8 9 10 11 12 13 14 15 16 17 18 19 20 21 22 23 24 25 26 27 28 29 30 31 32 33 34 35 36 37 38 39 40 41 42 43 44 45 46 47 48 49 50
000
ASUS41 KCLE 251612
RWRCLE
OHIO REGIONAL WEATHER ROUNDUP
NATIONAL WEATHER SERVICE WILMINGTON, OH
1200 PM EDT SUN JUN 25 2017

NOTE: "FAIR" INDICATES FEW OR NO CLOUDS BELOW 12,000 FEET WITH NO
SIGNIFICANT WEATHER AND/OR OBSTRUCTIONS TO VISIBILITY.

OHZ001>008-015>018-024>027-034-035-043-044-251700-
   NORTHWEST OHIO

CITY           SKY/WX    TMP DP  RH WIND       PRES   REMARKS
DEFIANCE       FAIR      67  45  45 W14G24    30.09R
FINDLAY        FAIR      71  45  39 W22       30.08R
TOLEDO EXPRESS FAIR      67  46  47 W20G25    30.06R
TOLEDO EXEC    FAIR      70  48  45 W18G26    30.06R
LIMA           FAIR      68  47  46 W20G25    30.11R
$$

OHZ009>014-019>023-028>033-038-089-251700-
   NORTHEAST OHIO

CITY           SKY/WX    TMP DP  RH WIND       PRES   REMARKS
CLE-HOPKINS    FAIR      76  48  37 SW20G25   30.04F
CLE-LAKEFRONT  FAIR      73  46  38 W22G30    30.01F
CUY CO. ARPT   PTSUNNY   73  45  35 W18G25    30.03F
LORAIN-ELYRIA  FAIR      70  47  43 W18G28    30.04S
ASHTABULA      FAIR      71  46  40 SW21G26   30.03F
AKRON-CANTON   FAIR      73  46  38 W18G28    30.07F
WOOSTER        FAIR      71  48  43 SW21G28   30.07F
MANSFIELD      FAIR      71  49  45 SW16G29   30.08S
YOUNGSTOWN     FAIR      70  45  40 SW18G24   30.05F
$$

OHZ042-051>053-060>062-070>072-077>081-251700-
  SOUTHWEST OHIO

CITY           SKY/WX    TMP DP  RH WIND       PRES   REMARKS
CINC-COVINGTON FAIR      75  49  39 W20G26    30.17S
CINC-LUNKEN    FAIR      76  52  43 W14G26    30.16S
HAMILTON       FAIR      75  51  43 W14G22    30.16S
DAYTON         FAIR      72  49  44 W21G29    30.14S
WRIGHT-PAT AFB SUNNY     73  48  40 SW21G29   30.12S
DAYTON GENERAL FAIR      73  46  38 W12G29    30.14S
WILMINGTON     FAIR      73  51  46 W16G24    30.14S
$$

OHZ036-037-039>041-045>050-054>059-063>069-073>076-082>088-251700-
  CENTRAL AND SOUTHEAST OHIO

CITY           SKY/WX    TMP DP  RH WIND       PRES   REMARKS
COLUMBUS       FAIR      75  48  38 W20G29    30.11S
OSU AIRPORT    FAIR      73  49  42 W22G36    30.11S
BOLTON FIELD   SUNNY     73  50  43 W16G29    30.13S
RICKENBACK AFB FAIR      74  48  40 W22G28    30.13R
NEWARK         FAIR      75  45  34 W15G21    30.11F
MARION         FAIR      72  47  40 W18G26    30.10R
LANCASTER      FAIR      73  49  42 W16G26    30.13S
ZANESVILLE     FAIR      73  46  38 W14       30.12S
NEW PHILLY     FAIR      73  49  42 W10G20    30.10F
$$



USA.gov is the U.S. government's official web portal to all federal, state and local government web resources and services.